Location: Newark
(42.8481°N, 0.4872°E)
Time: 16:38:27
(UTC+00:00)

A-11 Canister half - Visible Passes

Search period start: 21 October 2020 00:00
Search period end: 31 October 2020 00:00
Orbit: 1526 x 1682 km, 47.3° (Epoch: 20 October)

Date Brightness Start Highest point End Pass type
(mag) Time Alt. Az. Time Alt. Az. Time Alt. Az.
21 Oct 9.1 18:52:03 10° W 19:01:23 68° N 19:06:14 32° ENE visible
21 Oct 9.3 20:57:37 10° WNW 21:04:31 56° WNW 21:04:31 56° WNW visible
22 Oct 9.1 18:30:21 10° W 18:39:42 68° N 18:45:38 25° ENE visible
22 Oct 9.0 20:35:58 10° WNW 20:43:56 69° NW 20:43:56 69° NW visible
22 Oct 11.0 22:41:14 10° WNW 22:42:13 14° WNW 22:42:13 14° WNW visible
23 Oct 9.1 18:08:40 10° W 18:18:01 68° N 18:25:04 20° ENE visible
23 Oct 8.8 20:14:18 10° WNW 20:23:21 81° NNW 20:23:21 81° NNW visible
23 Oct 10.8 22:19:34 10° WNW 22:21:38 18° WNW 22:21:38 18° WNW visible
24 Oct 9.1 17:46:57 10° W 17:56:21 68° N 18:04:30 15° ENE visible
24 Oct 8.7 19:52:38 10° WNW 20:02:01 81° NNE 20:02:48 75° ENE visible
24 Oct 10.5 21:57:53 10° WNW 22:01:05 23° W 22:01:05 23° W visible
25 Oct 9.2 17:25:15 10° W 17:34:40 69° N 17:43:58 10° ENE visible
25 Oct 8.8 19:30:59 10° WNW 19:40:22 80° NNE 19:42:16 61° E visible
25 Oct 10.2 21:36:13 10° WNW 21:40:33 30° W 21:40:33 30° W visible
26 Oct 8.9 19:09:18 10° WNW 19:18:42 78° NNE 19:21:46 48° E visible
26 Oct 9.9 21:14:33 10° WNW 21:20:03 37° W 21:20:03 37° W visible
27 Oct 8.9 18:47:38 10° WNW 18:57:02 77° NNE 19:01:18 37° E visible
27 Oct 9.6 20:52:53 10° WNW 20:59:36 46° W 20:59:36 46° W visible
28 Oct 8.9 18:25:58 10° WNW 18:35:22 75° NNE 18:40:52 29° E visible
28 Oct 9.3 20:31:14 10° WNW 20:39:11 55° WSW 20:39:11 55° WSW visible
29 Oct 9.0 18:04:17 10° WNW 18:13:42 74° NNE 18:20:31 21° E visible
29 Oct 9.1 20:09:33 10° WNW 20:18:39 60° SW 20:18:49 60° SSW visible
29 Oct 11.1 22:16:25 10° W 22:17:08 12° W 22:17:08 12° W visible
30 Oct 9.0 17:42:36 10° WNW 17:52:02 73° NNE 18:00:12 15° E visible
30 Oct 9.1 19:47:53 10° WNW 19:57:02 63° SW 19:58:31 56° S visible
30 Oct 10.9 21:54:32 10° W 21:56:50 15° W 21:56:50 15° W visible
